Probability
0 0 0 0 0 0 0 0 0 0 0 0 0 0 0 1 2 2 1 1 3 4 5 6 9 11 11 13 16 17 16 16 15 11 7 6 6 5 6 7 7 5 2 1 0 0 0 1 0
0 0 0 0 0 0 0 0 0 0 0 0 0 0 0 0 1 1 0 1 3 4 5 6 9 11 11 12 14 15 15 15 15 12 9 9 8 6 6 7 6 4 3 2 1 0 1 1 1
0 0 0 0 0 0 0 0 0 0 0 0 0 0 0 0 1 0 0 1 3 4 4 6 8 11 11 11 12 12 13 14 13 11 9 10 10 9 9 9 7 5 4 4 3 2 2 2 1
0 0 0 0 0 0 0 0 0 0 0 0 0 0 0 0 0 0 0 1 3 4 4 5 8 10 10 10 10 10 11 11 11 11 10 9 10 11 12 11 7 5 5 5 5 4 3 2 1
0 0 0 0 0 0 0 0 0 0 0 0 0 0 0 0 0 0 0 1 3 3 2 4 7 7 8 8 8 8 8 9 10 11 12 11 12 13 12 10 6 4 4 4 4 4 3 2 1
0 0 0 0 0 0 0 0 0 0 0 0 0 0 0 0 0 0 0 1 2 2 1 2 3 4 4 6 7 6 6 7 8 9 10 12 14 15 12 9 5 4 4 3 2 3 2 1 0
0 0 0 0 0 0 0 0 0 0 0 0 0 0 0 0 0 0 0 1 2 2 1 0 1 1 1 2 4 5 4 5 6 6 5 7 12 14 12 8 6 6 7 5 3 3 2 1 0
0 0 0 0 0 0 0 0 0 0 0 0 0 0 0 0 0 0 1 1 2 2 1 0 0 0 0 0 2 3 3 2 3 4 2 2 6 10 9 6 5 8 10 7 4 3 2 1 0
0 0 0 0 0 0 0 0 0 0 0 0 0 0 0 0 0 0 1 2 2 2 1 0 0 0 0 0 0 1 1 1 1 2 1 0 3 7 7 4 3 7 9 7 3 1 1 0 0
0 0 0 0 0 0 0 0 0 0 0 0 0 0 0 0 0 0 1 2 2 1 0 0 0 0 0 0 0 0 0 0 0 0 0 0 2 5 5 2 1 3 4 4 2 1 0 0 1
0 0 0 0 0 0 0 0 0 0 0 0 0 0 0 0 1 1 1 2 2 1 0 0 0 0 1 1 0 0 0 0 0 0 0 0 1 3 2 1 0 1 2 2 2 1 0 1 2
0 0 0 0 0 0 0 0 0 0 0 0 0 0 0 0 1 1 1 2 3 2 1 0 0 1 2 2 1 0 0 1 1 1 0 0 1 2 1 0 0 1 2 2 1 0 0 1 2
0 0 0 0 0 0 0 0 0 0 0 0 0 0 0 0 0 1 2 2 3 3 2 1 1 2 3 3 2 1 0 1 1 1 0 0 0 1 1 0 0 1 2 1 0 0 0 0 1
0 0 0 0 0 0 0 0 0 0 0 0 0 0 0 0 0 0 1 2 3 3 3 1 1 3 3 3 3 1 0 0 0 0 0 0 0 0 0 0 0 0 0 0 0 1 1 1 2
0 0 0 0 0 0 0 0 0 0 0 0 0 0 0 0 0 0 0 1 2 3 3 3 3 3 3 3 3 2 1 0 0 0 0 0 0 0 0 0 0 0 0 0 1 2 2 2 2
0 0 0 0 0 0 0 0 0 0 0 0 0 0 0 0 0 0 0 0 1 2 3 3 3 3 3 4 4 3 2 1 0 0 0 0 0 0 0 0 0 0 0 0 1 2 3 2 1
0 0 0 0 0 0 0 0 0 0 0 0 0 0 0 0 0 0 0 0 0 1 2 3 3 3 4 4 4 5 3 1 0 0 0 0 0 0 0 0 0 0 0 0 1 1 1 1 1
0 0 0 0 0 0 0 0 0 0 0 0 0 0 0 0 0 0 0 0 0 0 1 1 3 3 3 4 4 5 5 2 0 0 0 0 0 0 0 0 0 0 0 0 0 0 0 0 1
0 0 0 0 0 0 0 0 0 0 0 0 0 0 0 0 0 0 0 0 0 0 0 1 2 3 3 3 3 4 5 4 2 0 0 0 0 0 0 0 0 0 0 0 0 0 0 0 1
0 0 0 0 0 0 0 0 0 0 0 0 0 0 0 0 0 0 0 0 0 0 0 1 2 3 3 3 3 3 4 5 3 1 0 0 0 0 0 0 0 0 0 0 0 0 0 0 0
0 0 0 0 0 0 0 0 0 0 0 0 0 0 0 0 0 0 0 0 0 0 0 0 1 1 2 3 3 3 3 4 3 1 0 0 0 0 0 0 0 0 0 0 0 0 0 0 0
0 0 0 0 0 0 0 0 0 0 0 0 0 0 0 0 0 0 0 0 0 0 0 0 0 0 1 1 2 3 3 3 3 2 0 0 0 0 0 0 0 0 0 0 0 0 0 0 0
0 0 0 0 0 0 0 0 0 0 0 0 0 0 0 0 0 0 0 0 0 0 0 0 0 0 0 0 1 1 2 2 2 1 0 0 0 0 0 0 0 0 0 0 0 0 0 0 0
0 0 0 0 0 0 0 0 0 0 0 0 0 0 0 0 0 0 0 0 0 0 0 0 0 0 0 0 0 0 1 1 1 0 0 0 0 0 0 0 0 0 0 0 0 0 0 0 0
0 0 0 0 0 0 0 0 0 0 0 0 0 0 0 0 0 0 0 0 0 0 0 0 0 0 0 0 0 0 0 0 0 0 0 0 0 0 0 0 0 0 0 0 0 0 0 0 0
0 0 0 0 0 0 0 0 0 0 0 0 0 0 0 0 0 0 0 0 0 0 0 0 0 0 0 0 0 0 0 0 0 0 0 0 0 0 0 0 0 0 0 0 0 0 0 0 0
0 0 0 0 0 0 0 0 0 0 0 0 0 0 0 0 0 0 0 0 0 0 0 0 0 0 0 0 0 0 0 0 0 0 0 0 0 0 0 0 0 0 0 0 0 0 0 0 0
0 0 0 0 0 0 0 0 0 0 0 0 0 0 0 0 0 0 0 0 0 0 0 0 0 0 0 0 0 0 0 0 0 0 0 0 0 0 0 0 0 0 0 0 0 0 0 0 0
0 0 0 0 0 0 0 0 0 0 0 0 0 0 0 0 0 0 0 0 0 0 0 0 0 0 0 0 0 0 0 0 0 0 0 0 0 0 0 0 0 0 0 0 0 0 0 0 0
0 0 0 0 0 0 0 0 0 0 0 0 0 0 0 0 0 0 0 0 0 0 0 0 0 0 0 0 0 0 0 0 0 0 0 0 0 0 0 0 0 0 0 0 0 0 0 0 0
Wind_Speed
11 9 6 2 2 4 7 5 2 1 3 6 6 5 5 6 5 5 3 5 5 5 5 5 7 6 6 6 6 6 6 5 5 5 5 6 6 7 7 8 8 8 8 8 9 9 9 10 10
9 7 3 3 3 5 6 4 1 3 5 5 3 3 2 6 6 6 3 4 5 5 5 6 7 7 6 6 6 6 6 6 5 5 5 5 6 6 7 7 7 7 7 8 8 8 8 9 9
9 6 3 3 5 5 3 2 4 7 6 2 2 4 4 5 6 4 3 3 5 6 6 7 8 7 7 7 6 6 6 5 5 5 5 5 5 6 6 6 7 7 7 7 7 7 8 9 8
4 3 3 4 8 5 2 3 5 5 3 2 2 3 5 6 5 5 4 4 6 6 6 7 9 8 8 7 7 6 6 5 5 5 4 5 6 6 5 6 6 6 6 7 7 7 7 8 7
3 3 4 6 9 5 1 3 3 1 2 1 1 2 4 5 7 6 4 4 5 5 6 6 9 9 8 8 7 7 6 5 5 5 5 5 5 5 5 5 5 5 6 7 7 6 7 7 6
3 3 4 7 7 4 1 2 1 1 0 1 1 1 4 5 6 4 4 4 5 5 6 5 7 8 8 8 8 7 7 6 5 4 4 4 4 5 5 5 5 5 6 6 6 6 6 6 5
3 3 6 7 5 3 1 2 0 1 1 2 2 1 5 5 4 3 3 5 5 6 5 4 4 5 6 8 8 8 7 7 6 4 4 3 3 3 4 4 5 5 5 5 6 6 6 5 4
3 3 5 6 5 2 2 2 2 2 2 3 4 2 3 3 3 3 4 4 5 5 4 4 3 3 3 3 6 7 7 6 5 5 4 2 2 3 3 3 4 5 5 5 5 5 5 4 4
3 3 5 4 3 1 3 2 2 3 2 2 3 4 5 6 4 3 3 4 4 4 4 3 3 2 2 2 4 4 5 5 4 4 3 1 1 1 2 3 4 4 5 4 5 5 4 4 3
2 3 3 2 4 2 2 2 1 0 1 0 3 5 6 5 3 3 2 2 2 3 3 3 2 2 2 2 2 1 2 2 3 3 2 1 1 1 2 2 3 3 4 4 4 4 3 2 1
3 4 2 3 4 3 2 2 1 1 2 0 2 4 4 4 2 1 1 2 2 2 2 2 2 2 2 2 2 1 1 2 2 3 4 2 1 1 2 1 1 2 2 2 2 2 1 1 1
4 4 3 2 2 2 2 2 2 2 1 3 4 4 4 3 2 1 1 2 2 2 2 2 2 2 2 2 1 2 1 1 1 2 3 2 2 2 2 1 0 1 1 1 1 1 1 1 2
6 5 3 1 1 1 2 3 3 2 1 2 3 3 2 2 1 1 1 2 2 2 2 2 2 2 2 2 1 2 1 1 2 2 2 3 2 2 2 1 1 1 0 1 1 1 1 1 2
2 2 3 2 2 2 3 4 4 3 1 1 3 3 2 1 1 1 2 2 2 3 2 2 2 2 2 2 1 1 1 2 2 2 2 3 2 2 2 2 2 1 1 0 1 1 1 1 1
2 3 5 6 5 3 2 5 7 5 3 3 3 3 2 1 1 1 1 1 1 2 2 2 2 2 2 2 2 2 2 2 2 2 2 3 3 2 2 1 1 2 1 1 0 1 1 1 1
5 5 5 5 6 5 4 7 3 3 4 4 3 2 2 1 1 2 2 2 2 2 2 3 2 3 2 2 1 2 2 2 1 1 2 2 3 3 2 2 2 2 1 1 1 0 1 1 1
5 5 6 4 6 5 6 5 2 2 2 3 3 2 2 2 2 2 3 3 3 3 3 3 3 3 2 1 1 2 1 2 1 1 1 2 2 2 2 2 2 2 2 1 1 1 1 1 1
4 5 5 5 4 4 6 6 4 3 3 3 3 3 3 2 1 2 3 3 3 3 3 3 3 3 2 1 1 1 2 1 1 1 2 2 2 2 2 1 2 2 2 2 2 2 1 1 1
6 7 8 6 1 3 6 8 7 5 4 4 4 3 3 2 3 3 3 3 3 3 4 3 3 2 1 1 1 1 1 1 1 1 2 2 2 2 2 1 1 1 1 1 1 1 1 1 1
8 8 8 5 1 3 6 9 7 6 7 6 4 4 3 2 3 3 3 3 3 3 3 3 3 2 2 1 1 0 0 0 0 1 1 2 2 1 1 1 1 1 1 1 1 1 0 0 1
8 7 6 5 5 5 5 7 8 6 5 4 3 3 3 3 3 3 2 2 3 3 2 2 2 2 2 1 1 0 0 0 1 1 0 1 1 1 1 0 0 0 1 1 1 0 0 0 0
7 4 5 3 3 4 3 5 5 5 4 4 4 3 3 3 3 2 2 2 2 2 2 2 2 2 2 1 1 1 0 0 0 1 0 0 0 0 0 0 0 0 0 1 1 1 0 1 1
4 4 5 4 4 5 5 5 5 4 4 4 4 4 4 4 3 3 2 2 2 2 2 2 2 1 1 1 1 0 0 0 0 0 0 0 0 0 0 0 0 0 0 1 1 1 1 1 1
3 3 4 3 2 6 8 7 5 3 5 5 5 4 4 3 3 3 3 2 2 2 2 1 1 1 1 1 1 1 1 0 0 0 0 1 0 0 0 0 1 1 1 1 1 2 1 1 1
2 1 1 2 4 6 5 5 4 2 2 5 6 5 4 4 3 3 3 2 2 2 1 1 1 1 1 1 1 1 1 1 1 1 1 1 1 1 1 1 1 1 1 1 1 2 2 2 2
4 4 3 3 3 2 2 5 3 1 3 4 5 5 4 4 3 3 2 2 1 1 1 1 1 1 1 0 1 1 1 1 1 1 1 2 1 1 1 1 2 2 2 2 2 2 2 2 3
2 4 3 3 3 4 4 2 1 2 3 4 4 4 4 3 3 2 2 1 1 1 1 0 1 1 1 1 1 1 1 1 2 2 2 2 2 1 1 2 2 2 2 3 3 2 3 3 3
3 2 1 3 3 4 4 4 3 4 5 5 4 3 2 2 2 1 1 1 0 0 1 1 1 1 1 1 1 1 1 2 2 2 2 2 2 2 2 2 3 3 3 3 3 3 3 3 3
3 3 3 3 3 2 3 2 1 2 3 5 4 2 2 2 2 1 1 1 1 1 1 1 1 2 1 1 1 1 2 2 2 2 2 2 2 2 2 3 3 3 3 3 3 3 3 4 4
3 3 3 3 4 3 3 4 2 2 2 3 2 1 1 1 1 1 1 1 1 1 1 2 2 2 2 2 1 2 2 2 2 2 2 2 2 2 2 3 3 3 3 3 3 4 4 4 4
Wind_Direction
300 277 255 256 243 232 242 245 260 69 50 42 28 14 21 29 29 92 101 41 53 70 82 71 62 64 69 69 68 72 79 86 95 105 110 111 110 108 106 104 105 106 106 104 103 102 98 96 94
292 285 264 243 241 239 237 222 212 59 65 53 34 7 33 71 68 87 66 29 53 64 75 62 60 61 66 71 72 75 76 77 83 92 99 107 109 107 106 104 103 103 105 106 104 104 101 98 98
275 269 257 237 235 245 266 52 75 70 67 52 47 25 30 54 64 71 53 34 56 62 65 63 60 63 63 65 65 65 71 73 75 87 95 101 104 108 109 106 104 103 105 107 105 106 106 103 102
269 239 242 246 248 254 292 55 72 83 75 41 54 82 71 42 49 64 60 52 62 63 66 67 63 64 63 61 60 57 63 69 72 78 96 107 105 101 102 101 102 104 102 103 103 105 109 109 109
244 244 236 239 247 250 326 60 71 82 137 126 69 78 79 63 64 70 62 56 65 62 66 72 66 62 61 61 60 58 57 62 69 70 76 96 107 105 97 97 104 106 109 107 106 108 109 111 112
253 244 241 238 241 228 163 85 60 302 330 89 46 62 94 80 65 61 63 61 67 67 67 68 64 61 58 57 58 59 55 55 60 66 74 87 96 111 110 105 107 107 106 112 111 113 112 108 111
265 257 254 262 259 253 95 70 7 315 358 32 11 57 109 87 72 64 72 70 67 68 65 59 54 59 59 55 53 54 52 52 48 49 64 89 96 102 117 112 110 113 111 109 114 114 118 119 115
291 280 258 259 259 264 60 52 27 8 5 30 19 37 97 94 84 72 73 68 64 66 67 63 55 52 65 67 55 49 48 45 45 39 33 59 104 112 114 117 110 116 119 114 115 114 124 128 129
286 259 255 265 274 41 77 39 31 32 38 31 39 53 80 101 100 86 75 65 56 56 56 59 54 49 55 73 61 48 44 40 41 38 22 36 112 110 110 113 110 117 124 124 123 121 120 125 137
231 243 253 333 353 22 53 20 12 150 172 149 86 85 96 105 104 100 93 85 67 52 52 50 43 36 47 61 73 47 48 39 34 37 23 13 37 59 78 106 118 121 118 130 133 130 128 129 141
219 243 281 339 17 21 4 344 333 263 257 221 123 116 112 103 104 107 103 87 88 74 58 50 43 41 49 57 67 50 44 36 32 42 37 20 28 47 63 84 116 138 138 146 145 145 152 139 124
243 264 283 308 10 357 322 310 310 287 327 46 82 98 114 116 119 103 60 53 64 65 66 61 43 48 46 57 63 62 55 35 46 45 50 38 27 38 42 34 32 142 147 157 157 147 145 143 125
236 262 275 283 338 286 280 270 281 286 325 36 96 103 119 130 114 85 63 56 59 61 69 79 61 52 49 51 49 60 49 52 60 53 47 45 37 28 40 32 12 13 88 144 155 151 158 148 138
267 286 280 252 246 248 247 259 251 238 168 171 149 140 133 120 103 69 55 43 46 52 63 72 71 62 60 60 59 69 59 59 60 53 45 47 47 34 27 25 10 4 356 347 145 152 155 139 135
263 257 251 228 219 203 243 260 232 210 188 196 170 144 131 112 85 70 58 51 55 58 58 67 84 64 62 60 52 61 56 61 65 61 49 44 47 45 35 31 16 358 347 355 73 116 116 129 118
231 236 237 204 196 180 189 254 231 156 184 205 178 137 121 116 92 74 68 55 53 64 62 62 63 61 58 61 64 57 55 60 63 62 58 44 44 45 51 36 14 354 356 14 12 137 132 136 126
216 233 242 225 184 176 202 250 205 150 183 199 178 158 150 120 88 70 68 64 55 63 71 70 63 58 52 47 69 77 67 64 61 55 54 43 47 46 61 54 20 14 12 21 20 9 120 126 127
245 256 263 254 187 198 226 249 239 205 199 206 187 180 169 154 129 86 78 74 61 65 72 74 72 58 44 39 51 68 74 65 62 56 48 51 40 40 55 60 45 34 36 30 25 16 16 100 133
279 276 276 278 244 225 242 254 248 225 216 220 208 193 174 147 117 95 85 83 73 69 67 64 68 57 49 42 42 52 53 44 47 49 47 55 54 42 49 41 57 56 67 61 41 25 22 36 68
266 265 272 289 254 252 261 267 258 235 222 211 208 185 160 133 108 99 85 78 69 66 60 64 60 58 53 27 4 32 109 98 95 56 41 36 48 53 49 67 82 92 85 61 50 43 56 20 69
258 256 261 273 302 265 269 273 241 221 203 187 184 169 145 140 122 104 88 75 68 57 55 57 59 52 42 25 39 30 46 93 46 29 29 19 36 45 35 58 80 102 119 138 146 91 154 163 1
265 279 278 265 262 261 232 276 245 201 186 171 172 161 143 129 120 118 110 91 82 75 63 58 62 58 43 29 33 63 99 136 223 211 197 11 59 78 36 65 110 121 165 181 198 165 187 141 176
265 296 273 250 250 267 238 253 255 190 194 186 173 162 144 139 137 137 126 108 89 82 79 62 48 56 57 40 12 360 150 231 312 164 174 235 298 71 40 187 146 178 233 208 190 199 202 178 183
293 288 270 247 249 253 223 218 259 210 200 180 167 151 141 138 135 125 108 98 83 73 69 62 45 33 43 34 7 345 319 298 312 298 244 259 261 240 264 266 214 216 240 239 217 206 219 218 217
237 222 272 223 216 240 209 205 240 211 152 162 162 149 138 131 128 120 107 91 70 60 48 37 22 358 25 33 357 325 306 309 271 257 249 252 253 250 242 240 233 225 231 239 232 215 221 216 216
221 208 213 242 247 276 225 223 216 140 124 128 132 136 139 143 138 128 125 118 90 57 39 26 333 317 328 322 297 299 294 264 267 288 278 255 247 241 235 237 233 221 216 226 224 225 229 222 221
238 227 241 271 277 267 238 218 215 152 131 135 139 147 159 154 138 127 115 109 89 43 347 318 316 309 305 283 277 275 280 278 277 280 278 277 269 254 236 238 245 233 219 218 216 220 223 225 225
254 270 237 219 248 262 244 221 219 198 189 171 168 175 167 141 124 112 106 85 94 61 325 341 319 295 291 284 271 284 281 275 266 268 264 259 268 265 247 246 243 236 228 227 222 225 226 223 233
214 215 230 243 246 249 272 262 5 160 156 164 174 177 160 147 151 142 124 77 31 7 353 343 331 322 308 292 282 282 277 275 274 267 269 268 265 266 254 244 239 237 234 229 225 227 226 226 232
247 238 210 225 251 243 258 266 348 53 76 109 124 128 137 146 148 143 129 87 31 355 346 348 338 329 310 297 295 291 287 278 274 271 276 281 279 278 277 260 247 244 239 229 225 235 234 231 230